Vertical_Velocity
-1 -1 -1 -1 -0 -0 -0 -1 -1 -2 -2 -2 -2 -2 -2 -1 -1 -2 -1 -1 0 -0 -1 0 1 0 -0 1 1 1 -0 -1 -0 -0 -2 0 2 1 1 1 -0 -1 -1 -3 0
-1 -0 -1 -1 -1 -1 -2 -2 -1 -0 -1 -1 -1 -0 -1 -1 -1 -0 -2 -0 -0 -1 -0 -0 1 0 0 1 0 0 -2 -0 0 1 0 -0 1 2 0 0 -0 1 -4 2 -1
-1 -1 -0 -1 -0 1 1 -2 -3 -3 -3 -2 -2 -1 -1 -1 2 -1 -1 -2 -1 -1 -1 0 0 0 0 1 0 -1 -2 0 -1 0 -0 0 0 -0 1 0 -1 -1 1 3 2
-0 -1 0 -1 -2 -3 -3 -2 -1 -1 -2 -0 -1 -1 -2 -1 -2 -0 -0 -1 -1 -0 -1 -2 0 0 -1 -1 0 -1 -1 -1 -1 -1 -2 -2 0 1 1 -0 -2 -1 -0 2 1
1 -1 -3 -2 -1 -1 -2 -1 -1 -0 -1 -1 -1 -1 -1 -1 -1 -0 0 0 0 -0 -0 -1 -1 1 1 0 -0 -0 -1 -1 -0 -1 -2 -2 -4 -3 -0 -1 -3 -1 -1 -1 -2
-0 0 -0 -1 -1 1 1 0 -2 -1 -1 -2 -1 -1 -0 -0 0 -1 -0 -1 -0 0 -1 -0 -1 -1 -0 0 -0 -1 -1 -0 -0 -0 -2 -1 -1 -1 -4 -1 -3 -3 -3 -3 -2
-1 -0 0 1 1 -1 -0 -0 -1 -1 -2 0 -1 -1 -1 -2 -0 -1 0 -1 -1 -1 -1 -0 -1 -1 0 -1 -1 -1 -0 1 0 0 -1 -1 1 2 -2 -2 -3 -1 -2 -1 -2
-1 1 0 1 1 1 -0 -0 -0 -2 -2 -2 -0 -0 -1 -2 -1 -1 0 0 -1 -0 0 -1 -2 -0 0 -0 -0 -0 -1 -1 -0 0 -2 -0 4 0 -2 -2 1 -1 -1 -1 -1
0 1 -1 0 1 0 1 -0 -0 -1 -1 -2 0 1 -1 -2 -1 -2 -1 -0 -0 -0 -0 -1 -1 -1 -1 -0 -1 -0 -0 -1 0 -0 -1 -3 1 -3 -0 -3 -1 0 0 1 -1
0 -1 0 -0 -1 2 1 0 -1 -2 1 -1 -0 0 1 -1 -0 -1 -0 0 -1 -0 -0 -0 -0 -0 -0 -1 -1 -1 -1 -1 -1 0 -1 -5 -2 -0 3 -5 -2 -0 -1 -1 -1
-2 1 -0 -1 -0 1 1 -0 0 -5 1 5 1 -2 2 0 -1 -1 -1 -0 -0 -2 -0 -0 -1 -1 -1 0 0 -1 -0 -1 0 -1 -3 -2 -11 5 2 -2 -0 -1 -2 -3 -2
-0 -2 1 -1 2 1 -0 0 1 2 -3 1 0 -2 1 1 -1 -1 -2 -1 -1 -1 -1 -0 -0 -1 -2 -1 -1 -1 -0 -0 -1 -1 -2 -2 -7 -5 1 0 -1 -1 -3 -1 1
3 -2 -1 2 -1 3 1 -0 1 0 2 -1 2 1 -0 1 -0 -1 -1 -1 -3 -2 -0 1 -0 -0 -0 -0 -1 -0 -1 -0 0 -4 -4 -3 1 0 0 -2 -0 -0 -0 0 -0
-0 2 -2 0 0 2 3 2 -0 2 -0 1 -1 1 -0 1 1 0 -0 0 -0 -1 -1 -1 -1 -0 0 1 -1 -2 -0 -0 -0 -1 -2 -2 -11 3 1 0 -0 -2 -2 -2 -4
-3 3 0 1 -0 2 2 2 2 2 -5 2 1 2 1 -3 -1 -1 -0 0 1 1 1 1 -0 -1 -1 -0 0 -0 -2 0 1 1 3 0 -0 2 2 0 -0 -1 -2 -2 -1
3 -2 5 -1 -0 1 1 5 2 0 -11 -3 0 -1 0 -1 -2 -1 -2 -2 0 -1 0 1 1 0 0 -0 0 1 0 2 1 -0 -3 1 0 -3 -2 -0 -1 -2 -1 -1 -0
5 -1 1 3 1 -0 3 6 2 -2 -2 -1 -3 -2 0 -1 -1 -3 -2 -3 -2 -1 -0 -0 -1 0 1 -1 -1 -0 -2 -4 -6 -4 -6 0 1 -9 -1 -3 -3 -1 1 0 -1
3 5 -0 4 1 1 2 6 3 0 -1 -2 -1 -1 -2 -1 1 -1 -1 -0 -1 -1 -1 0 -0 -1 -1 -0 -1 -1 -1 -3 -3 -2 -3 2 -5 -2 2 -1 -1 0 -0 -1 2
5 2 2 3 3 2 2 2 -2 1 -0 -1 -0 1 -0 -2 -3 -1 -1 -1 -2 -1 -1 -1 -1 -0 1 1 0 -0 -1 -1 -0 1 -2 -1 -3 -1 3 -1 0 1 -1 1 1
4 0 5 2 4 3 4 -5 1 1 0 1 -0 -1 -2 -1 -0 -2 -3 -2 -2 -2 -2 -1 -2 -1 -1 -1 -1 2 2 -1 -1 -4 -2 -3 -5 -11 -2 -2 -0 -1 1 0 -1
6 -1 7 5 6 4 -6 -2 -1 3 2 1 1 1 -1 -1 1 -1 0 -1 -1 -2 -1 -0 -1 -1 1 -0 -0 -0 -1 -1 -1 0 -4 -1 -12 -2 -1 -0 2 3 4 -12 -3
6 -0 6 4 5 -4 -5 -2 -1 1 1 0 1 3 2 1 -2 -2 -2 1 -1 -0 -3 -2 1 -2 2 1 -0 0 -1 3 -2 -2 1 1 -23 1 1 -2 0 3 -4 2 3
1 9 4 3 -6 -7 0 -1 -2 2 1 -1 1 -0 2 0 -2 1 1 -1 -0 -1 -0 -3 -2 -4 -2 -1 0 -1 1 3 1 1 -7 -1 -16 -3 -0 -1 1 2 -2 -3 -2
4 3 -2 -2 1 -1 2 1 -2 0 0 -1 -1 0 -0 1 -0 0 0 0 -1 -1 1 1 -1 -5 -10 -1 -0 -4 -4 1 6 3 -2 -25 -9 -16 5 4 1 -5 -4 -5 -6
-2 -8 -3 -8 -12 -2 8 2 3 -6 3 -2 -3 -1 -1 2 1 -3 0 1 1 0 -2 0 -3 -1 0 3 -2 -2 -3 5 2 -4 6 -11 -11 2 11 3 -5 -5 -0 -3 0
-15 -10 -2 2 5 7 8 -8 1 -1 1 -6 -6 2 -0 -4 6 -2 0 -1 1 2 -0 -1 -2 1 -16 2 6 -6 -3 4 1 -3 -7 4 -29 17 1 2 -4 -2 -1 -2 -3
1 -2 -2 1 3 2 -12 1 7 8 1 1 7 -1 -4 3 2 0 -2 3 -4 1 1 -1 1 1 -4 -2 -0 -12 0 -2 2 -2 3 -6 -2 -3 -8 -4 -7 -3 5 1 -2
Height
3109 3107 3105 3102 3099 3097 3094 3092 3089 3087 3085 3083 3081 3079 3077 3076 3074 3072 3071 3071 3069 3068 3068 3068 3068 3069 3070 3071 3073 3074 3077 3076 3075 3077 3077 3080 3081 3081 3083 3085 3085 3086 3087 3087 3090
3107 3105 3102 3099 3097 3095 3092 3090 3088 3085 3083 3081 3079 3077 3075 3073 3072 3070 3070 3067 3066 3066 3066 3066 3067 3067 3068 3069 3070 3071 3073 3073 3073 3074 3075 3077 3078 3079 3081 3081 3081 3082 3082 3082 3082
3105 3103 3101 3098 3095 3092 3089 3087 3085 3083 3081 3079 3077 3075 3073 3071 3069 3067 3067 3066 3065 3064 3064 3064 3065 3066 3067 3068 3068 3069 3070 3071 3071 3071 3072 3074 3076 3076 3076 3077 3077 3079 3080 3080 3078
3104 3101 3098 3095 3092 3090 3088 3087 3085 3082 3080 3077 3075 3072 3070 3069 3070 3066 3065 3063 3063 3063 3063 3063 3063 3064 3065 3065 3066 3067 3067 3068 3069 3068 3070 3071 3072 3072 3073 3073 3073 3074 3075 3076 3075
3102 3099 3096 3094 3092 3090 3088 3086 3083 3080 3078 3076 3073 3070 3068 3067 3067 3065 3065 3064 3063 3062 3062 3062 3062 3063 3063 3063 3064 3064 3065 3066 3066 3066 3067 3068 3068 3069 3070 3069 3069 3070 3069 3069 3069
3099 3098 3096 3094 3091 3088 3086 3083 3081 3079 3076 3074 3071 3069 3066 3066 3065 3065 3064 3063 3063 3061 3061 3061 3062 3062 3062 3061 3062 3062 3062 3063 3064 3064 3064 3065 3066 3065 3066 3065 3065 3065 3064 3063 3062
3098 3096 3094 3091 3089 3086 3084 3081 3079 3076 3074 3071 3069 3067 3065 3066 3064 3064 3064 3063 3062 3061 3060 3060 3060 3061 3061 3060 3060 3061 3062 3062 3062 3062 3062 3063 3063 3062 3062 3061 3061 3060 3058 3057 3057
3095 3093 3091 3088 3086 3084 3082 3079 3077 3074 3072 3069 3067 3066 3065 3064 3064 3064 3064 3062 3061 3060 3059 3059 3059 3059 3059 3059 3059 3060 3060 3060 3061 3061 3060 3061 3060 3059 3058 3057 3056 3056 3053 3051 3051
3092 3090 3088 3086 3084 3081 3079 3077 3075 3072 3070 3067 3066 3065 3064 3064 3064 3063 3062 3061 3059 3058 3057 3057 3058 3058 3058 3057 3058 3058 3058 3059 3060 3059 3057 3058 3055 3056 3056 3051 3050 3050 3048 3047 3046
3089 3087 3085 3083 3081 3079 3077 3074 3072 3070 3067 3065 3064 3066 3064 3064 3063 3062 3061 3060 3058 3057 3057 3057 3056 3056 3056 3056 3056 3056 3057 3057 3058 3058 3054 3052 3048 3051 3050 3045 3045 3043 3042 3042 3042
3085 3084 3082 3080 3078 3076 3074 3072 3072 3068 3065 3063 3062 3060 3061 3062 3062 3061 3060 3058 3056 3056 3056 3056 3056 3055 3054 3054 3054 3054 3054 3054 3054 3052 3048 3047 3043 3043 3040 3038 3039 3038 3038 3038 3038
3080 3079 3078 3076 3074 3073 3071 3069 3067 3067 3062 3059 3058 3058 3059 3060 3060 3059 3059 3058 3055 3055 3055 3056 3053 3053 3053 3053 3052 3052 3051 3051 3050 3048 3045 3040 3037 3033 3031 3033 3033 3034 3035 3035 3035
3076 3075 3073 3072 3071 3069 3068 3066 3064 3062 3060 3057 3056 3057 3059 3059 3057 3057 3057 3055 3054 3053 3053 3052 3052 3051 3051 3050 3050 3050 3049 3049 3048 3044 3040 3035 3031 3030 3030 3030 3031 3032 3032 3032 3031
3070 3070 3069 3068 3069 3066 3065 3063 3061 3059 3056 3055 3055 3055 3056 3055 3055 3055 3054 3055 3052 3052 3051 3050 3050 3050 3049 3049 3048 3047 3047 3046 3044 3043 3040 3037 3035 3029 3027 3027 3028 3028 3028 3027 3026
3064 3064 3064 3063 3062 3062 3062 3059 3058 3057 3057 3053 3052 3052 3053 3055 3055 3053 3052 3051 3050 3049 3050 3049 3047 3047 3047 3047 3046 3047 3045 3043 3040 3038 3036 3033 3036 3024 3024 3024 3025 3024 3023 3022 3021
3057 3057 3058 3059 3058 3057 3057 3056 3056 3057 3050 3048 3048 3048 3051 3050 3050 3050 3050 3050 3049 3047 3046 3046 3046 3045 3045 3045 3044 3044 3043 3040 3035 3035 3037 3032 3034 3021 3021 3022 3021 3020 3019 3018 3016
3049 3050 3052 3052 3054 3053 3052 3053 3054 3048 3046 3044 3044 3045 3047 3047 3046 3046 3047 3047 3047 3047 3044 3044 3043 3043 3043 3043 3043 3042 3041 3039 3040 3039 3037 3032 3032 3015 3017 3017 3017 3016 3016 3014 3011
3040 3042 3044 3045 3046 3048 3048 3049 3047 3039 3038 3038 3040 3041 3042 3044 3043 3042 3042 3042 3042 3042 3043 3041 3040 3041 3041 3042 3041 3040 3041 3041 3045 3045 3035 3031 3022 3013 3013 3013 3013 3013 3012 3010 3007
3032 3033 3035 3038 3039 3041 3044 3042 3036 3034 3034 3034 3036 3036 3037 3037 3040 3039 3038 3038 3038 3039 3041 3039 3039 3038 3039 3039 3041 3038 3039 3040 3039 3038 3037 3022 3014 3011 3009 3009 3009 3009 3008 3006 3002
3022 3024 3027 3030 3031 3033 3034 3032 3030 3030 3030 3031 3031 3032 3031 3033 3034 3034 3034 3034 3035 3036 3037 3037 3037 3035 3036 3037 3037 3036 3038 3037 3037 3042 3037 3019 3014 3005 3005 3006 3006 3006 3004 3001 2997
3013 3013 3017 3020 3023 3024 3022 3023 3024 3026 3027 3028 3027 3027 3028 3029 3029 3030 3030 3031 3031 3033 3034 3035 3034 3035 3033 3033 3033 3034 3033 3034 3036 3035 3035 3028 3007 3002 3003 3003 3002 3002 3000 2995 2989
3001 3002 3007 3010 3014 3011 3012 3015 3019 3020 3021 3022 3023 3024 3024 3025 3025 3026 3026 3027 3028 3030 3031 3033 3031 3029 3030 3029 3029 3030 3030 3031 3033 3032 3028 3024 3000 3000 2999 2999 2999 2998 2993 2988 2983
2991 2992 2996 2999 2999 3001 3005 3007 3011 3013 3015 3017 3019 3019 3021 3021 3023 3021 3022 3024 3025 3027 3027 3028 3028 3028 3026 3028 3026 3025 3026 3026 3028 3028 3021 3025 2998 2996 2996 2995 2995 2992 2985 2981 2977
2982 2984 2984 2987 2989 2993 2998 3000 3002 3006 3008 3011 3013 3014 3017 3017 3018 3018 3019 3020 3021 3023 3024 3024 3022 3022 3021 3020 3021 3022 3023 3023 3023 3019 3012 3003 2989 2994 2993 2989 2987 2984 2979 2974 2970
2969 2969 2973 2973 2978 2984 2991 2991 2995 2997 3001 3004 3006 3008 3012 3014 3014 3014 3016 3017 3018 3019 3020 3021 3016 3015 3015 3014 3013 3013 3011 3012 3009 3008 3008 2989 2992 2984 2988 2983 2980 2976 2972 2967 2964
2956 2958 2962 2968 2972 2975 2979 2980 2987 2989 2993 2995 2999 3003 3006 3008 3012 3011 3012 3013 3014 3014 3014 3015 3013 3010 3008 3008 3006 3000 2998 2996 2996 2996 2992 2987 2983 2984 2979 2977 2975 2972 2966 2962 2959
2942 2947 2956 2961 2965 2968 2967 2973 2978 2983 2988 2990 2995 2997 2999 3004 3006 3007 3008 3009 3009 3010 3010 3012 3010 3010 3004 3003 3000 2993 2983 2984 2986 2987 2986 2981 2980 2977 2974 2971 2969 2966 2961 2956 2952